DECAYED

NOAA 16 DEB, 42360 (Decayed)

Orbit data source: Space-Track

NOAA 16 DEB, 42360 was space debris in SSO originally from a launch on Thu, 21 Sep 2000 UTC launched from the Air Force Western Test Range (AFWTR). Debris objects in space refer to the collection of defunct objects orbiting the Earth. Examples of debris include non-operational satellites, rocket bodies, and fragments generated from explosions, collisions, or faulty payload assembly.

Not visible in the next 10 days
Identifier
42360, 2000-055RC
Orbit
Decayed
Last TLE update
5 months ago
Origin
Manufacturer
Unknown
Mission
Decayed spacecraft
Bus & Motor
Unknown
Mass
Unknown
Launch date (UTC)
2000-09-21 (25 years ago)
Launch vehicle
Unknown
Launch site
Air Force Western Test Range (AFWTR)
Object type
Payload
Rocket body
Debris
Shape & HBR
Unknown
Radar Cross Section
Small (<0.1 m²)

Expand to show TLE details & history

TLE from 5 months ago
0 NOAA 16 DEB
1 42360U 00055RC  25042.96296219  .02117046  00000-0  23360-1 0  9998
2 42360  98.8119 226.2442 0021795 345.0425  15.0179 15.59301419471993
Epoch: 2025-02-11T23:06Z
TLE epoch observation values (Epoch: 2025-02-11T23:06:39.933Z)
Latitude
-0.00007°
Longitude
97.31757°
Altitude
378.529 km
Speed
7.691 km/s
True Right ascension
15h 04m 58s
True Declination
0° 00' 00"
Sunlit
Object was in daylight at epoch
Visualization orbit readout
Visualization observer readout
Orbital elements
Apogee altitude
401.402 km
Perigee altitude
371.914 km
Semi-major axis
6,764.795 km
Eccentricity
0.00218
Inclination
98.8119°
RAAN
226.2442°
Arg. of periapsis
345.0425°
True anomaly
Unknown
Mean anomaly
15.0179°
Eccentric anomaly
Unknown
Mean motion
3.90087 °/min
Orbital period
92.29 mins
BSTAR
0.02336
Loading maneuver chart data...
Loading SW <> Apogee altitude chart data...
Loading historical data...
Loading historical data...
Loading historical data...
Loading historical data...
Loading historical data...
Loading historical data...
Loading historical data...

NOAA 16 DEB Visibility

Observer location: undefined°, undefined°

This satellite is decayed
Span
Click to sort rows by Start time (UTC) header in descending order
Start Az.
Max El. time (UTC)
Max El. Az.
Max El.
End time (UTC)
End Az.
|